KD0QEO Weather Reports


time (UTC)temp
F
wind
direction
speed
knots
gust
knots
rain 1hr
in
rain 24hr
in
rain mn
in
humidity
%
barometer
mb
20260505070052 49 360 1.7 3.5 0.00 0.00 0.00 71 1010.0
20260505064549 49 0 0.9 2.6 0.00 0.00 0.00 67 1010.5
20260505063100 50 0 0.0 1.7 0.00 0.00 0.00 64 1010.8
20260505061550 50 360 0.9 4.3 0.00 0.00 0.00 64 1010.8
20260505060049 50 360 2.6 7.0 0.00 0.00 0.00 64 1010.4
20260505054554 50 360 4.3 7.8 0.00 0.00 0.00 63 1010.3
20260505053052 50 360 3.5 7.0 0.00 0.00 0.00 64 1010.1
20260505051549 50 360 2.6 7.8 0.00 0.00 0.00 63 1010.1
20260505041553 53 360 12.2 17.4 0.00 0.00 0.00 52 1009.7
20260505040050 54 360 15.6 21.7 0.00 0.00 0.00 48 1009.8
20260505034552 55 360 13.0 17.4 0.00 0.00 0.00 48 1010.2
20260505033053 55 360 13.0 20.9 0.00 0.00 0.00 47 1009.6
20260505031554 56 360 9.6 19.1 0.00 0.00 0.00 46 1009.7
20260505030052 56 360 9.6 13.0 0.00 0.00 0.00 46 1009.8
20260505024555 56 360 11.3 18.2 0.00 0.00 0.00 46 1009.0
20260505023055 56 360 10.4 20.0 0.00 0.00 0.00 45 1009.0
20260505021556 57 360 13.9 20.0 0.00 0.00 0.00 45 1008.3
20260505020056 58 360 16.5 25.2 0.00 0.00 0.00 44 1007.6
20260505014552 59 360 19.1 24.3 0.00 0.00 0.00 43 1007.4
20260505013056 61 360 13.9 24.3 0.00 0.00 0.00 39 1007.2
20260505011549 61 360 12.2 20.9 0.00 0.00 0.00 40 1006.7
20260505010109 62 360 13.9 21.7 0.00 0.00 0.00 39 1006.3
20260505004547 65 360 13.0 19.1 0.00 0.00 0.00 38 1006.0
20260505003048 66 360 16.5 22.6 0.00 0.00 0.00 37 1005.7
20260505001549 67 360 14.8 21.7 0.00 0.00 0.00 36 1005.5
20260505000050 67 360 15.6 22.6 0.00 0.00 0.00 36 1005.6
20260504234549 68 360 14.8 23.5 0.00 0.00 0.00 35 1005.7
20260504233047 70 360 14.8 21.7 0.00 0.00 0.00 34 1005.7
20260504231548 70 360 16.5 22.6 0.00 0.00 0.00 34 1005.2
20260504230048 69 360 11.3 18.2 0.00 0.00 0.00 35 1005.3
20260504224544 69 360 13.9 21.7 0.00 0.00 0.00 34 1005.1
20260504223058 70 360 15.6 22.6 0.00 0.00 0.00 32 1004.9
20260504221604 70 360 13.9 20.9 0.00 0.00 0.00 32 1004.8
20260504220049 70 360 13.0 21.7 0.00 0.00 0.00 32 1005.2
20260504214600 73 360 15.6 21.7 0.00 0.00 0.00 31 1004.6
20260504213100 74 360 14.8 20.9 0.00 0.00 0.00 31 1004.9
20260504211553 74 360 14.8 20.0 0.00 0.00 0.00 31 1004.7
20260504210049 73 360 10.4 14.8 0.00 0.00 0.00 34 1004.7
20260504204600 73 360 13.0 17.4 0.00 0.00 0.00 34 1004.5
20260504203053 75 360 12.2 20.0 0.00 0.00 0.00 33 1004.5
20260504201549 75 360 12.2 19.1 0.00 0.00 0.00 35 1004.2
20260504200050 75 360 12.2 20.0 0.00 0.00 0.00 34 1004.3
20260504194555 76 360 16.5 23.5 0.00 0.00 0.00 33 1004.3
20260504193057 77 360 14.8 21.7 0.00 0.00 0.00 35 1004.0
20260504191547 78 360 14.8 20.9 0.00 0.00 0.00 33 1004.1
20260504190047 78 360 13.9 21.7 0.00 0.00 0.00 31 1004.0
20260504184550 79 360 14.8 23.5 0.00 0.00 0.00 32 1004.0
20260504183050 79 360 13.9 20.9 0.00 0.00 0.00 32 1003.8
20260504181550 80 360 14.8 21.7 0.00 0.00 0.00 28 1003.8
20260504180057 80 360 10.4 19.1 0.00 0.00 0.00 22 1003.6
20260504174553 80 360 12.2 20.9 0.00 0.00 0.00 22 1003.9
20260504173049 80 360 7.0 19.1 0.00 0.00 0.00 24 1003.8
20260504171554 79 360 10.4 20.0 0.00 0.00 0.00 22 1003.9
20260504150107 69 360 8.7 13.9 0.00 0.00 0.00 39 1004.6
20260504081553 53 360 5.2 7.8 0.00 0.00 0.00 57 1004.2
20260504080112 55 360 4.3 8.7 0.00 0.00 0.00 52 1004.4